NGN567 LOWI-EDDK

Flight info

Callsign NGN567
Flight time 0h 52m
Altitude 36000
Route KPT L608 KOVAN T844 UMDAS/N0359F240 T844 ASKIK T840 GULKO GULKO1B
Aircraft A320/M-SDE3FGHIRWY/LB1

Departure

Time 2026-05-06 19:11
Airport Innsbruck Airport (LOWI)

Arrival

Time 2026-05-06 20:03
Airport Cologne Bonn Airport (EDDK)
Time Latitude Longitude Altitude Speed Heading
2026-05-06 18:11 47.25829 11.35108 1899 ft 0 kts 171°
2026-05-06 18:11 47.25829 11.35109 1900 ft 1 kts 171°
2026-05-06 18:12 47.25828 11.35109 1900 ft 0 kts 171°
2026-05-06 19:00 47.25829 11.35109 1907 ft 1 kts 171°
2026-05-06 19:00 47.25843 11.35105 1894 ft 3 kts 173°
2026-05-06 19:00 47.25863 11.35104 1896 ft 3 kts 187°
2026-05-06 19:00 47.25880 11.35110 1896 ft 3 kts 227°
2026-05-06 19:01 47.25886 11.35123 1892 ft 0 kts 261°
2026-05-06 19:05 47.25885 11.35123 1892 ft 0 kts 261°
2026-05-06 19:05 47.25883 11.35106 1896 ft 3 kts 259°
2026-05-06 19:05 47.25878 11.35063 1917 ft 5 kts 260°
2026-05-06 19:05 47.25871 11.34998 1907 ft 7 kts 260°
2026-05-06 19:06 47.25861 11.34914 1901 ft 9 kts 259°
2026-05-06 19:06 47.25850 11.34812 1896 ft 11 kts 261°
2026-05-06 19:06 47.25838 11.34689 1907 ft 13 kts 260°
2026-05-06 19:06 47.25823 11.34548 1907 ft 15 kts 261°
2026-05-06 19:07 47.25805 11.34388 1894 ft 17 kts 261°
2026-05-06 19:07 47.25786 11.34210 1907 ft 19 kts 261°
2026-05-06 19:07 47.25770 11.34017 1902 ft 14 kts 278°
2026-05-06 19:07 47.25803 11.33894 1902 ft 14 kts 311°
2026-05-06 19:08 47.25821 11.33858 1895 ft 0 kts 306°
2026-05-06 19:09 47.25821 11.33857 1907 ft 1 kts 306°
2026-05-06 19:09 47.25831 11.33838 1905 ft 4 kts 307°
2026-05-06 19:09 47.25882 11.33733 1908 ft 21 kts 305°
2026-05-06 19:09 47.25930 11.33539 1908 ft 22 kts 266°
2026-05-06 19:10 47.25898 11.33312 1906 ft 23 kts 245°
2026-05-06 19:10 47.25833 11.33103 1901 ft 17 kts 266°
2026-05-06 19:10 47.25878 11.33105 1896 ft 9 kts 56°
2026-05-06 19:10 47.25892 11.33196 1906 ft 10 kts 82°
2026-05-06 19:11 47.25924 11.33484 1903 ft 66 kts 83°
2026-05-06 19:11 47.26032 11.34558 1907 ft 142 kts 84°
2026-05-06 19:11 47.26216 11.36164 2395 ft 165 kts 85°
2026-05-06 19:11 47.26398 11.37871 3291 ft 171 kts 82°
2026-05-06 19:12 47.26575 11.39644 3802 ft 183 kts 83°
2026-05-06 19:12 47.26769 11.41611 4076 ft 205 kts 83°
2026-05-06 19:12 47.26988 11.43785 4399 ft 226 kts 82°
2026-05-06 19:12 47.27479 11.46125 4831 ft 246 kts 71°
2026-05-06 19:13 47.28107 11.48501 5607 ft 252 kts 69°
2026-05-06 19:13 47.28789 11.50903 6403 ft 257 kts 70°
2026-05-06 19:13 47.29449 11.53370 7157 ft 261 kts 78°
2026-05-06 19:13 47.29543 11.56080 7696 ft 275 kts 105°
2026-05-06 19:14 47.28726 11.58637 8391 ft 278 kts 133°
2026-05-06 19:14 47.27213 11.60357 9262 ft 277 kts 159°
2026-05-06 19:14 47.25347 11.60899 10136 ft 275 kts 183°
2026-05-06 19:14 47.23510 11.60130 10848 ft 277 kts 212°
2026-05-06 19:15 47.22111 11.58175 11635 ft 281 kts 237°
2026-05-06 19:15 47.21466 11.55468 12517 ft 287 kts 262°
2026-05-06 19:15 47.21694 11.52564 13491 ft 288 kts 279°
2026-05-06 19:15 47.22401 11.49793 14273 ft 296 kts 295°
2026-05-06 19:16 47.23552 11.47178 14606 ft 315 kts 298°
2026-05-06 19:16 47.24818 11.44401 14749 ft 337 kts 300°
2026-05-06 19:16 47.26165 11.41502 15192 ft 347 kts 300°
2026-05-06 19:16 47.27544 11.38563 15684 ft 352 kts 300°
2026-05-06 19:17 47.28938 11.35594 15807 ft 352 kts 300°
2026-05-06 19:17 47.30330 11.32606 15994 ft 357 kts 300°
2026-05-06 19:17 47.31731 11.29576 16725 ft 358 kts 300°
2026-05-06 19:17 47.33135 11.26527 17367 ft 362 kts 300°
2026-05-06 19:18 47.34557 11.23433 18005 ft 366 kts 300°
2026-05-06 19:18 47.35985 11.20320 18549 ft 370 kts 300°
2026-05-06 19:18 47.37418 11.17196 19158 ft 373 kts 300°
2026-05-06 19:18 47.38878 11.14013 19768 ft 376 kts 300°
2026-05-06 19:19 47.40352 11.10795 20350 ft 380 kts 300°
2026-05-06 19:19 47.41830 11.07563 20912 ft 382 kts 300°
2026-05-06 19:19 47.43328 11.04284 21500 ft 385 kts 300°
2026-05-06 19:19 47.44827 11.01000 22065 ft 388 kts 300°
2026-05-06 19:20 47.46345 10.97670 22640 ft 392 kts 300°
2026-05-06 19:20 47.47870 10.94326 23207 ft 395 kts 299°
2026-05-06 19:20 47.49414 10.90935 23739 ft 398 kts 300°
2026-05-06 19:20 47.50965 10.87518 24245 ft 402 kts 299°
2026-05-06 19:21 47.52526 10.84069 24745 ft 404 kts 299°
2026-05-06 19:21 47.54092 10.80601 25213 ft 407 kts 298°
2026-05-06 19:21 47.55666 10.77125 25715 ft 408 kts 298°
2026-05-06 19:21 47.57255 10.73613 26213 ft 410 kts 298°
2026-05-06 19:22 47.58843 10.70100 26677 ft 412 kts 298°
2026-05-06 19:22 47.60440 10.66563 27143 ft 413 kts 297°
2026-05-06 19:22 47.62016 10.63062 27593 ft 415 kts 297°
2026-05-06 19:22 47.63641 10.59448 28054 ft 417 kts 297°
2026-05-06 19:23 47.65251 10.55860 28483 ft 418 kts 297°
2026-05-06 19:23 47.66862 10.52264 28975 ft 420 kts 296°
2026-05-06 19:23 47.67935 10.49869 29271 ft 421 kts 296°
2026-05-06 19:23 47.69559 10.46241 29710 ft 423 kts 296°
2026-05-06 19:24 47.71189 10.42593 30116 ft 424 kts 296°
2026-05-06 19:24 47.72831 10.38912 30457 ft 427 kts 296°
2026-05-06 19:24 47.74662 10.35324 30785 ft 437 kts 305°
2026-05-06 19:24 47.76880 10.32155 31092 ft 448 kts 314°
2026-05-06 19:25 47.79313 10.29215 31385 ft 452 kts 315°
2026-05-06 19:25 47.81726 10.26297 31742 ft 452 kts 315°
2026-05-06 19:25 47.84158 10.23348 32197 ft 452 kts 315°
2026-05-06 19:25 47.86597 10.20377 32647 ft 451 kts 315°
2026-05-06 19:26 47.89015 10.17417 33145 ft 451 kts 315°
2026-05-06 19:26 47.91438 10.14444 33596 ft 450 kts 315°
2026-05-06 19:26 47.93859 10.11470 33853 ft 451 kts 315°
2026-05-06 19:27 47.98694 10.05522 33896 ft 450 kts 315°
2026-05-06 19:27 48.03530 9.99579 33895 ft 451 kts 315°
2026-05-06 19:28 48.08376 9.93607 33870 ft 452 kts 315°
2026-05-06 19:28 48.13223 9.87610 33865 ft 452 kts 315°
2026-05-06 19:29 48.18070 9.81586 33863 ft 453 kts 315°
2026-05-06 19:29 48.22930 9.75542 33866 ft 454 kts 315°
2026-05-06 19:30 48.27792 9.69482 33867 ft 455 kts 316°
2026-05-06 19:30 48.32664 9.63393 33877 ft 456 kts 316°
2026-05-06 19:31 48.37527 9.57276 33877 ft 455 kts 315°
2026-05-06 19:31 48.44764 9.47977 33873 ft 456 kts 315°
2026-05-06 19:32 48.49577 9.41756 33881 ft 457 kts 315°
2026-05-06 19:32 48.54412 9.35526 33868 ft 457 kts 315°
2026-05-06 19:33 48.59211 9.29340 33864 ft 457 kts 315°
2026-05-06 19:33 48.64633 9.24089 33863 ft 465 kts 333°
2026-05-06 19:34 48.70576 9.20175 33862 ft 466 kts 333°
2026-05-06 19:34 48.76512 9.16242 33868 ft 465 kts 333°
2026-05-06 19:35 48.82434 9.12302 33865 ft 465 kts 333°
2026-05-06 19:35 48.88333 9.08416 33865 ft 466 kts 336°
2026-05-06 19:36 48.94518 9.05266 33861 ft 467 kts 339°
2026-05-06 19:36 49.00645 9.02184 33855 ft 468 kts 339°
2026-05-06 19:37 49.06825 8.99088 33854 ft 468 kts 339°
2026-05-06 19:37 49.13019 8.95970 33847 ft 468 kts 339°
2026-05-06 19:38 49.19198 8.92825 33848 ft 468 kts 339°
2026-05-06 19:38 49.25379 8.89672 33864 ft 469 kts 339°
2026-05-06 19:39 49.31513 8.86552 33855 ft 465 kts 340°
2026-05-06 19:39 49.37681 8.83403 33854 ft 465 kts 340°
2026-05-06 19:40 49.43811 8.80399 33855 ft 466 kts 342°
2026-05-06 19:40 49.50113 8.77703 33860 ft 467 kts 343°
2026-05-06 19:41 49.56342 8.75100 33861 ft 467 kts 343°
2026-05-06 19:41 49.62595 8.72382 33514 ft 466 kts 342°
2026-05-06 19:42 49.65690 8.71005 32548 ft 459 kts 342°
2026-05-06 19:42 49.68743 8.69639 31620 ft 452 kts 343°
2026-05-06 19:42 49.71732 8.68305 30731 ft 445 kts 344°
2026-05-06 19:42 49.74693 8.66991 29849 ft 438 kts 344°
2026-05-06 19:43 49.77594 8.65703 28847 ft 431 kts 344°
2026-05-06 19:43 49.80460 8.64432 27869 ft 424 kts 344°
2026-05-06 19:43 49.83270 8.63186 26929 ft 418 kts 344°
2026-05-06 19:43 49.86056 8.61949 26000 ft 413 kts 344°
2026-05-06 19:44 49.88803 8.60732 25140 ft 408 kts 343°
2026-05-06 19:44 49.91516 8.59524 24285 ft 404 kts 343°
2026-05-06 19:44 49.94212 8.58315 23485 ft 401 kts 343°
2026-05-06 19:44 49.96854 8.57132 22928 ft 387 kts 343°
2026-05-06 19:45 49.99364 8.56012 22659 ft 367 kts 343°
2026-05-06 19:45 50.01785 8.54929 22061 ft 357 kts 343°
2026-05-06 19:45 50.04149 8.53870 21379 ft 350 kts 343°
2026-05-06 19:45 50.06460 8.52805 20704 ft 345 kts 341°
2026-05-06 19:46 50.08727 8.51645 20027 ft 340 kts 340°
2026-05-06 19:46 50.10943 8.50443 19374 ft 335 kts 339°
2026-05-06 19:46 50.13132 8.49228 18733 ft 331 kts 339°
2026-05-06 19:46 50.15287 8.48030 18095 ft 327 kts 339°
2026-05-06 19:47 50.17415 8.46852 17385 ft 323 kts 339°
2026-05-06 19:47 50.19531 8.45696 16673 ft 320 kts 339°
2026-05-06 19:47 50.21629 8.44557 15981 ft 318 kts 339°
2026-05-06 19:47 50.23703 8.43431 15303 ft 315 kts 339°
2026-05-06 19:48 50.25767 8.42309 14655 ft 313 kts 339°
2026-05-06 19:48 50.27730 8.41225 14077 ft 309 kts 336°
2026-05-06 19:48 50.29675 8.39821 13884 ft 308 kts 329°
2026-05-06 19:48 50.31519 8.38080 13835 ft 309 kts 325°
2026-05-06 19:49 50.33334 8.36264 13844 ft 310 kts 325°
2026-05-06 19:49 50.35151 8.34459 13849 ft 310 kts 325°
2026-05-06 19:49 50.36945 8.32675 13863 ft 309 kts 324°
2026-05-06 19:49 50.38758 8.30873 13855 ft 307 kts 324°
2026-05-06 19:50 50.40551 8.29088 13552 ft 305 kts 324°
2026-05-06 19:50 50.42335 8.27307 13153 ft 303 kts 324°
2026-05-06 19:50 50.44103 8.25539 12784 ft 302 kts 324°
2026-05-06 19:50 50.45870 8.23772 12420 ft 300 kts 324°
2026-05-06 19:51 50.47629 8.22007 12047 ft 298 kts 324°
2026-05-06 19:51 50.49372 8.20251 11693 ft 297 kts 324°
2026-05-06 19:51 50.51105 8.18508 11360 ft 296 kts 324°
2026-05-06 19:51 50.52835 8.16769 11010 ft 295 kts 324°
2026-05-06 19:52 50.54567 8.15020 10848 ft 292 kts 323°
2026-05-06 19:52 50.56036 8.12913 10858 ft 289 kts 303°
2026-05-06 19:52 50.56908 8.10109 10855 ft 285 kts 284°
2026-05-06 19:52 50.57463 8.07128 10862 ft 285 kts 284°
2026-05-06 19:53 50.58013 8.04114 10868 ft 285 kts 283°
2026-05-06 19:53 50.58555 8.01117 10870 ft 285 kts 283°
2026-05-06 19:53 50.59095 7.98118 10869 ft 285 kts 283°
2026-05-06 19:53 50.59636 7.95114 10873 ft 285 kts 283°
2026-05-06 19:54 50.60169 7.92153 10503 ft 280 kts 285°
2026-05-06 19:54 50.60697 7.89220 10003 ft 276 kts 286°
2026-05-06 19:54 50.61220 7.86322 9871 ft 280 kts 286°
2026-05-06 19:54 50.61752 7.83370 9699 ft 279 kts 287°
2026-05-06 19:55 50.62283 7.80428 8977 ft 279 kts 287°
2026-05-06 19:55 50.62809 7.77494 8297 ft 277 kts 287°
2026-05-06 19:55 50.63328 7.74602 7914 ft 272 kts 287°
2026-05-06 19:55 50.63846 7.71715 7847 ft 274 kts 287°
2026-05-06 19:56 50.64367 7.68799 7862 ft 276 kts 287°
2026-05-06 19:56 50.64889 7.65880 7868 ft 276 kts 287°
2026-05-06 19:56 50.65405 7.62990 7588 ft 273 kts 287°
2026-05-06 19:56 50.65915 7.60109 7264 ft 272 kts 287°
2026-05-06 19:57 50.66421 7.57251 6937 ft 271 kts 287°
2026-05-06 19:57 50.66927 7.54402 6699 ft 267 kts 287°
2026-05-06 19:57 50.67427 7.51579 6333 ft 268 kts 287°
2026-05-06 19:57 50.67924 7.48746 6009 ft 267 kts 286°
2026-05-06 19:58 50.68417 7.45937 5683 ft 265 kts 287°
2026-05-06 19:58 50.68904 7.43161 5274 ft 260 kts 287°
2026-05-06 19:58 50.69445 7.40445 4677 ft 259 kts 298°
2026-05-06 19:58 50.70497 7.38191 4379 ft 254 kts 317°
2026-05-06 19:59 50.71789 7.36335 4036 ft 247 kts 319°
2026-05-06 19:59 50.73036 7.34553 3705 ft 236 kts 319°
2026-05-06 19:59 50.74206 7.32875 3415 ft 224 kts 319°
2026-05-06 19:59 50.75339 7.31247 3115 ft 214 kts 319°
2026-05-06 20:00 50.76409 7.29707 2838 ft 204 kts 319°
2026-05-06 20:00 50.77439 7.28225 2555 ft 195 kts 319°
2026-05-06 20:00 50.78414 7.26822 2295 ft 186 kts 319°
2026-05-06 20:00 50.79331 7.25501 2068 ft 175 kts 319°
2026-05-06 20:01 50.80209 7.24236 1816 ft 166 kts 319°
2026-05-06 20:01 50.81046 7.23029 1585 ft 157 kts 319°
2026-05-06 20:01 50.81825 7.21905 1355 ft 145 kts 319°
2026-05-06 20:01 50.82535 7.20880 1179 ft 134 kts 319°
2026-05-06 20:02 50.82987 7.20223 1044 ft 132 kts 318°
2026-05-06 20:02 50.83873 7.18913 762 ft 131 kts 316°
2026-05-06 20:02 50.84546 7.17936 640 ft 133 kts 318°
2026-05-06 20:02 50.85229 7.16970 470 ft 129 kts 317°
2026-05-06 20:03 50.85889 7.16011 321 ft 127 kts 318°
2026-05-06 20:03 50.86447 7.15221 268 ft 90 kts 317°
2026-05-06 20:03 50.86702 7.14854 258 ft 57 kts 317°
2026-05-06 20:03 50.86873 7.14453 257 ft 26 kts 281°
2026-05-06 20:04 50.86891 7.14290 258 ft 21 kts 281°
2026-05-06 20:04 50.86919 7.14103 251 ft 19 kts 294°
2026-05-06 20:04 50.87012 7.13946 248 ft 21 kts 315°
2026-05-06 20:04 50.87086 7.13836 245 ft 12 kts 321°
2026-05-06 20:05 50.87156 7.13740 243 ft 15 kts 321°
2026-05-06 20:05 50.87236 7.13621 240 ft 17 kts 316°
2026-05-06 20:05 50.87331 7.13488 237 ft 19 kts 317°
2026-05-06 20:05 50.87430 7.13342 235 ft 19 kts 317°
2026-05-06 20:06 50.87524 7.13206 232 ft 19 kts 318°
2026-05-06 20:06 50.87615 7.13074 231 ft 19 kts 317°
2026-05-06 20:06 50.87708 7.12938 231 ft 17 kts 318°
2026-05-06 20:06 50.87783 7.12825 231 ft 11 kts 306°
2026-05-06 20:07 50.87787 7.12703 230 ft 11 kts 270°
2026-05-06 20:07 50.87824 7.12626 230 ft 7 kts 326°
2026-05-06 20:07 50.87878 7.12611 230 ft 12 kts
2026-05-06 20:07 50.87966 7.12576 232 ft 13 kts 314°
2026-05-06 20:08 50.88020 7.12466 230 ft 13 kts 307°
2026-05-06 20:08 50.88047 7.12404 230 ft 0 kts 302°
2026-05-06 20:09 50.88049 7.12399 233 ft 4 kts 304°
2026-05-06 20:09 50.88074 7.12357 232 ft 5 kts 313°
2026-05-06 20:10 50.88101 7.12312 230 ft 6 kts 313°
2026-05-06 20:10 50.88108 7.12252 230 ft 5 kts 250°
2026-05-06 20:10 50.88084 7.12218 230 ft 4 kts 217°
2026-05-06 20:10 50.88062 7.12194 230 ft 3 kts 215°
2026-05-06 20:11 50.88058 7.12189 230 ft 0 kts 215°